When you browse on this site, cookies collect data to enhance your experience and personalize the content and advertising you see.
Visit our Privacy Policy to learn more. By continuing to use the site, you agree to this use of cookies and data.
  • In Spain
  • List of Countries
  • For 7 days
  • Water Temperature
  • Weather Map
  • Weather Widgets
  • user-avatar
    Login

    Hourly Weather Aqtobe

    Today, 4 June, Thursday

    Time Temperature Precipitation Wind Pressure Humidity
    00:00 +22°C° 0 mm 7 mps 739 mmHg 55%
    01:00 +21°C° 0 mm 7 mps 739 mmHg 56%
    02:00 +20°C° 0 mm 7 mps 739 mmHg 58%
    03:00 +20°C° 0 mm 6 mps 739 mmHg 59%
    04:00 +17°C° 0 mm 5 mps 740 mmHg 63%
    05:00 +19°C° 0 mm 6 mps 740 mmHg 61%
    06:00 +20°C° 0 mm 7 mps 740 mmHg 59%
    07:00 +20°C° 0 mm 8 mps 740 mmHg 57%
    08:00 +21°C° 0 mm 8 mps 740 mmHg 53%
    09:00 +23°C° 0 mm 8 mps 740 mmHg 48%
    10:00 +24°C° 0 mm 8 mps 740 mmHg 44%
    11:00 +26°C° 0 mm 7 mps 740 mmHg 42%
    12:00 +27°C° 0 mm 7 mps 740 mmHg 41%
    13:00 +27°C° 0 mm 7 mps 740 mmHg 39%
    14:00 +27°C° 0 mm 8 mps 740 mmHg 39%
    15:00 +27°C° 0 mm 8 mps 740 mmHg 39%
    16:00 +27°C° 0 mm 8 mps 740 mmHg 39%
    17:00 +26°C° 0 mm 7 mps 740 mmHg 42%
    18:00 +24°C° 0 mm 6 mps 740 mmHg 45%
    19:00 +23°C° 0 mm 5 mps 740 mmHg 48%
    20:00 +22°C° 0 mm 6 mps 741 mmHg 47%
    21:00 +21°C° 0 mm 6 mps 741 mmHg 47%
    22:00 +20°C° 0 mm 7 mps 742 mmHg 46%
    23:00 +18°C° 0 mm 7 mps 742 mmHg 46%

    Tomorrow, 5 June, Friday

    Time Temperature Precipitation Wind Pressure Humidity
    00:00 +18°C° 0 mm 8 mps 742 mmHg 46%
    01:00 +17°C° 0 mm 8 mps 742 mmHg 46%
    02:00 +17°C° 0 mm 8 mps 743 mmHg 47%
    03:00 +16°C° 0 mm 8 mps 743 mmHg 49%
    04:00 +16°C° 0 mm 8 mps 743 mmHg 51%
    05:00 +16°C° 0 mm 8 mps 743 mmHg 51%
    06:00 +16°C° 0 mm 8 mps 744 mmHg 51%
    07:00 +16°C° 0 mm 8 mps 744 mmHg 51%
    08:00 +18°C° 0 mm 8 mps 744 mmHg 48%
    09:00 +20°C° 0 mm 8 mps 745 mmHg 45%
    10:00 +21°C° 0 mm 8 mps 745 mmHg 43%
    11:00 +22°C° 0 mm 8 mps 745 mmHg 40%
    12:00 +23°C° 0 mm 7 mps 745 mmHg 38%
    13:00 +24°C° 0 mm 7 mps 745 mmHg 36%
    14:00 +26°C° 0 mm 7 mps 745 mmHg 35%
    15:00 +26°C° 0 mm 6 mps 744 mmHg 34%
    16:00 +26°C° 0 mm 6 mps 744 mmHg 34%
    17:00 +24°C° 0 mm 6 mps 744 mmHg 36%
    18:00 +23°C° 0 mm 5 mps 744 mmHg 38%
    19:00 +22°C° 0 mm 5 mps 744 mmHg 40%
    20:00 +21°C° 0 mm 5 mps 744 mmHg 40%
    21:00 +20°C° 0 mm 5 mps 745 mmHg 40%
    22:00 +17°C° 0 mm 5 mps 745 mmHg 39%
    23:00 +17°C° 0 mm 6 mps 745 mmHg 39%

    Day after tomorrow, 6 June, Saturday

    Time Temperature Precipitation Wind Pressure Humidity
    00:00 +16°C° 0 mm 6 mps 745 mmHg 40%
    01:00 +16°C° 0 mm 6 mps 744 mmHg 40%
    02:00 +16°C° 0 mm 6 mps 745 mmHg 41%
    03:00 +15°C° 0 mm 5 mps 745 mmHg 43%
    04:00 +15°C° 0 mm 5 mps 745 mmHg 44%
    05:00 +16°C° 0 mm 5 mps 745 mmHg 45%
    06:00 +16°C° 0 mm 6 mps 745 mmHg 45%
    07:00 +17°C° 0 mm 6 mps 745 mmHg 45%
    08:00 +20°C° 0 mm 6 mps 745 mmHg 42%
    09:00 +21°C° 0 mm 6 mps 746 mmHg 38%
    10:00 +23°C° 0 mm 6 mps 746 mmHg 35%
    11:00 +24°C° 0 mm 6 mps 746 mmHg 32%
    12:00 +24°C° 0 mm 6 mps 746 mmHg 30%
    13:00 +26°C° 0 mm 5 mps 746 mmHg 27%
    14:00 +23°C° 0 mm 5 mps 746 mmHg 35%
    15:00 +21°C° 0 mm 5 mps 746 mmHg 43%
    16:00 +20°C° 0 mm 6 mps 745 mmHg 51%
    17:00 +19°C° 0 mm 5 mps 745 mmHg 49%
    18:00 +19°C° 0 mm 5 mps 745 mmHg 47%
    19:00 +19°C° 0 mm 4 mps 745 mmHg 45%
    20:00 +18°C° 0 mm 3 mps 746 mmHg 47%
    21:00 +18°C° 0 mm 3 mps 746 mmHg 49%
    22:00 +17°C° 0 mm 2 mps 746 mmHg 51%
    23:00 +17°C° 0 mm 2 mps 746 mmHg 51%

    7 June, Sunday

    Time Temperature Precipitation Wind Pressure Humidity
    00:00 +16°C° 0 mm 3 mps 746 mmHg 52%
    01:00 +16°C° 0 mm 3 mps 746 mmHg 53%
    02:00 +16°C° 0 mm 3 mps 746 mmHg 56%
    03:00 +14°C° 0 mm 3 mps 746 mmHg 58%
    04:00 +14°C° 0 mm 3 mps 746 mmHg 61%
    05:00 +17°C° 0 mm 4 mps 746 mmHg 55%
    06:00 +18°C° 0 mm 4 mps 746 mmHg 50%
    07:00 +19°C° 0 mm 4 mps 747 mmHg 44%
    08:00 +21°C° 0 mm 5 mps 747 mmHg 39%
    09:00 +23°C° 0 mm 5 mps 747 mmHg 34%
    10:00 +25°C° 0 mm 5 mps 747 mmHg 28%
    11:00 +26°C° 0 mm 5 mps 747 mmHg 27%
    12:00 +27°C° 0 mm 5 mps 747 mmHg 25%
    13:00 +28°C° 0 mm 5 mps 747 mmHg 24%
    14:00 +28°C° 0 mm 5 mps 747 mmHg 23%
    15:00 +28°C° 0 mm 4 mps 746 mmHg 22%
    16:00 +28°C° 0 mm 4 mps 746 mmHg 21%
    17:00 +27°C° 0 mm 4 mps 746 mmHg 25%
    18:00 +26°C° 0 mm 4 mps 746 mmHg 29%
    19:00 +25°C° 0 mm 3 mps 746 mmHg 33%
    20:00 +23°C° 0 mm 4 mps 746 mmHg 36%
    21:00 +21°C° 0 mm 4 mps 746 mmHg 38%
    22:00 +20°C° 0 mm 5 mps 746 mmHg 40%
    23:00 +19°C° 0 mm 4 mps 746 mmHg 41%

    8 June, Monday

    Time Temperature Precipitation Wind Pressure Humidity
    00:00 +18°C° 0 mm 4 mps 746 mmHg 43%
    01:00 +18°C° 0 mm 4 mps 746 mmHg 44%
    02:00 +17°C° 0 mm 4 mps 746 mmHg 46%
    03:00 +16°C° 0 mm 3 mps 746 mmHg 48%
    04:00 +16°C° 0 mm 3 mps 746 mmHg 49%
    05:00 +17°C° 0 mm 4 mps 746 mmHg 47%
    06:00 +19°C° 0 mm 4 mps 746 mmHg 45%
    07:00 +21°C° 0 mm 4 mps 747 mmHg 43%
    08:00 +22°C° 0 mm 5 mps 747 mmHg 38%
    09:00 +25°C° 0 mm 5 mps 747 mmHg 33%
    10:00 +27°C° 0 mm 5 mps 747 mmHg 29%
    11:00 +28°C° 0 mm 5 mps 747 mmHg 27%
    12:00 +29°C° 0 mm 5 mps 747 mmHg 25%
    13:00 +30°C° 0 mm 5 mps 747 mmHg 23%
    14:00 +30°C° 0 mm 5 mps 747 mmHg 23%
    15:00 +30°C° 0 mm 4 mps 746 mmHg 23%
    16:00 +30°C° 0 mm 4 mps 746 mmHg 23%
    17:00 +29°C° 0 mm 4 mps 746 mmHg 28%
    18:00 +27°C° 0 mm 4 mps 746 mmHg 32%
    19:00 +26°C° 0 mm 4 mps 746 mmHg 37%
    20:00 +25°C° 0 mm 4 mps 747 mmHg 40%
    21:00 +22°C° 0 mm 4 mps 747 mmHg 42%
    22:00 +21°C° 0 mm 4 mps 747 mmHg 44%
    23:00 +20°C° 0 mm 3 mps 747 mmHg 45%

    9 June, Tuesday

    Time Temperature Precipitation Wind Pressure Humidity
    00:00 +19°C° 0 mm 3 mps 748 mmHg 46%
    01:00 +19°C° 0 mm 3 mps 748 mmHg 47%
    02:00 +18°C° 0 mm 3 mps 748 mmHg 48%
    03:00 +18°C° 0 mm 3 mps 748 mmHg 49%
    04:00 +17°C° 0 mm 2 mps 748 mmHg 50%
    05:00 +19°C° 0 mm 3 mps 748 mmHg 48%
    06:00 +21°C° 0 mm 3 mps 749 mmHg 46%
    07:00 +24°C° 0 mm 3 mps 749 mmHg 43%
    08:00 +25°C° 0 mm 4 mps 749 mmHg 38%
    09:00 +27°C° 0 mm 4 mps 749 mmHg 33%
    10:00 +29°C° 0 mm 4 mps 749 mmHg 28%
    11:00 +30°C° 0 mm 4 mps 749 mmHg 27%
    12:00 +30°C° 0 mm 4 mps 749 mmHg 26%
    13:00 +32°C° 0 mm 5 mps 749 mmHg 25%
    14:00 +32°C° 0 mm 5 mps 749 mmHg 24%
    15:00 +32°C° 0 mm 4 mps 749 mmHg 24%
    16:00 +32°C° 0 mm 4 mps 748 mmHg 24%
    17:00 +30°C° 0 mm 4 mps 748 mmHg 28%
    18:00 +29°C° 0 mm 4 mps 748 mmHg 32%
    19:00 +28°C° 0 mm 3 mps 748 mmHg 35%
    20:00 +27°C° 0 mm 3 mps 748 mmHg 38%
    21:00 +25°C° 0 mm 4 mps 748 mmHg 41%
    22:00 +22°C° 0 mm 4 mps 748 mmHg 44%
    23:00 +21°C° 0 mm 3 mps 748 mmHg 46%
    Show more